| time (UTC) | temp F | wind direction | speed knots | gust knots | rain 1hr in | rain 24hr in | rain mn in | humidity % | barometer mb |
| 20260503224546 | 58 | 232 | 6.1 | 17.4 | 0.00 | 0.00 | 0.00 | 47 | 1013.5 |
| 20260503224027 | 58 | 223 | 7.8 | 17.4 | 0.00 | 0.00 | 0.00 | 47 | 1013.5 |
| 20260503223531 | 58 | 225 | 7.8 | 14.8 | 0.00 | 0.00 | 0.00 | 47 | 1013.5 |
| 20260503223046 | 58 | 200 | 7.8 | 14.8 | 0.00 | 0.00 | 0.00 | 48 | 1013.5 |
| 20260503222528 | 59 | 211 | 7.8 | 14.8 | 0.00 | 0.00 | 0.00 | 47 | 1013.6 |
| 20260503222026 | 58 | 217 | 5.2 | 15.6 | 0.00 | 0.00 | 0.00 | 48 | 1013.6 |
| 20260503221552 | 58 | 245 | 6.1 | 16.5 | 0.00 | 0.00 | 0.00 | 48 | 1013.5 |
| 20260503221028 | 59 | 219 | 10.4 | 17.4 | 0.00 | 0.00 | 0.00 | 46 | 1013.6 |
| 20260503220531 | 59 | 215 | 8.7 | 19.1 | 0.00 | 0.00 | 0.00 | 47 | 1013.6 |
| 20260503220044 | 59 | 175 | 12.2 | 19.1 | 0.00 | 0.00 | 0.00 | 48 | 1013.5 |
| 20260503215528 | 59 | 230 | 7.0 | 16.5 | 0.00 | 0.00 | 0.00 | 48 | 1013.6 |
| 20260503215027 | 59 | 207 | 9.6 | 19.1 | 0.00 | 0.00 | 0.00 | 50 | 1013.7 |
| 20260503214541 | 59 | 203 | 8.7 | 20.9 | 0.00 | 0.00 | 0.00 | 49 | 1013.5 |
| 20260503214027 | 59 | 200 | 13.0 | 20.9 | 0.00 | 0.00 | 0.00 | 49 | 1013.7 |
| 20260503213527 | 59 | 202 | 9.6 | 19.1 | 0.00 | 0.00 | 0.00 | 47 | 1013.7 |
| 20260503213040 | 58 | 198 | 10.4 | 19.1 | 0.00 | 0.00 | 0.00 | 50 | 1013.7 |
| 20260503212530 | 58 | 211 | 10.4 | 17.4 | 0.00 | 0.00 | 0.00 | 51 | 1013.8 |
| 20260503212027 | 59 | 213 | 12.2 | 20.0 | 0.00 | 0.00 | 0.00 | 47 | 1013.7 |
| 20260503211547 | 59 | 231 | 11.3 | 20.0 | 0.00 | 0.00 | 0.00 | 50 | 1013.7 |
| 20260503211030 | 59 | 180 | 9.6 | 20.0 | 0.00 | 0.00 | 0.00 | 50 | 1013.7 |
| 20260503210534 | 59 | 255 | 7.8 | 20.0 | 0.00 | 0.00 | 0.00 | 49 | 1013.9 |
| 20260503210044 | 59 | 224 | 10.4 | 22.6 | 0.00 | 0.00 | 0.00 | 47 | 1013.8 |
| 20260503205528 | 60 | 217 | 8.7 | 22.6 | 0.00 | 0.00 | 0.00 | 50 | 1013.8 |
| 20260503205028 | 59 | 211 | 7.0 | 21.7 | 0.00 | 0.00 | 0.00 | 47 | 1013.8 |
| 20260503204543 | 60 | 217 | 11.3 | 19.1 | 0.00 | 0.00 | 0.00 | 47 | 1013.8 |
| 20260503204034 | 60 | 212 | 8.7 | 19.1 | 0.00 | 0.00 | 0.00 | 49 | 1013.8 |
| 20260503203530 | 59 | 240 | 10.4 | 18.2 | 0.00 | 0.00 | 0.00 | 50 | 1014.0 |
| 20260503203043 | 59 | 218 | 11.3 | 23.5 | 0.00 | 0.00 | 0.00 | 51 | 1014.0 |
| 20260503202529 | 59 | 217 | 9.6 | 23.5 | 0.00 | 0.00 | 0.00 | 49 | 1014.0 |
| 20260503202027 | 59 | 240 | 11.3 | 20.0 | 0.00 | 0.00 | 0.00 | 49 | 1014.0 |
| 20260503201541 | 59 | 219 | 10.4 | 20.0 | 0.00 | 0.00 | 0.00 | 50 | 1014.0 |
| 20260503201031 | 59 | 198 | 12.2 | 18.2 | 0.00 | 0.00 | 0.00 | 48 | 1014.1 |
| 20260503200530 | 59 | 196 | 10.4 | 20.0 | 0.00 | 0.00 | 0.00 | 50 | 1014.2 |
| 20260503200056 | 60 | 229 | 10.4 | 20.0 | 0.00 | 0.00 | 0.00 | 49 | 1014.1 |
| 20260503195530 | 61 | 225 | 7.8 | 18.2 | 0.00 | 0.00 | 0.00 | 47 | 1014.2 |
| 20260503195034 | 61 | 225 | 9.6 | 18.2 | 0.00 | 0.00 | 0.00 | 49 | 1014.3 |
| 20260503194543 | 60 | 271 | 8.7 | 17.4 | 0.00 | 0.00 | 0.00 | 49 | 1014.5 |
| 20260503194027 | 59 | 219 | 10.4 | 20.0 | 0.00 | 0.00 | 0.00 | 48 | 1014.6 |
| 20260503193530 | 59 | 207 | 11.3 | 20.0 | 0.00 | 0.00 | 0.00 | 48 | 1014.7 |
| 20260503193047 | 60 | 205 | 10.4 | 17.4 | 0.00 | 0.00 | 0.00 | 47 | 1014.8 |
| 20260503192527 | 61 | 206 | 6.1 | 16.5 | 0.00 | 0.00 | 0.00 | 47 | 1015.0 |
| 20260503192029 | 61 | 215 | 7.0 | 16.5 | 0.00 | 0.00 | 0.00 | 47 | 1015.0 |
| 20260503191541 | 60 | 205 | 7.0 | 16.5 | 0.00 | 0.00 | 0.00 | 48 | 1015.0 |
| 20260503191031 | 60 | 194 | 7.0 | 20.9 | 0.00 | 0.00 | 0.00 | 50 | 1015.3 |
| 20260503190528 | 59 | 198 | 11.3 | 20.9 | 0.00 | 0.00 | 0.00 | 49 | 1015.3 |
| 20260503190043 | 60 | 208 | 7.0 | 20.9 | 0.00 | 0.00 | 0.00 | 50 | 1015.3 |
| 20260503185529 | 60 | 223 | 10.4 | 24.3 | 0.00 | 0.00 | 0.00 | 48 | 1015.4 |
| 20260503185030 | 59 | 200 | 13.0 | 24.3 | 0.00 | 0.00 | 0.00 | 50 | 1015.5 |
| 20260503184547 | 60 | 230 | 7.8 | 16.5 | 0.00 | 0.00 | 0.00 | 47 | 1015.5 |
| 20260503184030 | 60 | 252 | 7.8 | 15.6 | 0.00 | 0.00 | 0.00 | 48 | 1015.5 |
| 20260503183529 | 61 | 223 | 6.1 | 14.8 | 0.00 | 0.00 | 0.00 | 52 | 1015.6 |
| 20260503183058 | 60 | 212 | 8.7 | 17.4 | 0.00 | 0.00 | 0.00 | 47 | 1015.6 |
| 20260503182529 | 60 | 221 | 8.7 | 18.2 | 0.00 | 0.00 | 0.00 | 54 | 1015.6 |
| 20260503182030 | 59 | 229 | 8.7 | 21.7 | 0.00 | 0.00 | 0.00 | 52 | 1015.8 |
| 20260503181558 | 58 | 215 | 9.6 | 21.7 | 0.00 | 0.00 | 0.00 | 51 | 1015.7 |
| 20260503181027 | 59 | 213 | 10.4 | 21.7 | 0.00 | 0.00 | 0.00 | 50 | 1015.9 |
| 20260503180527 | 59 | 267 | 7.0 | 14.8 | 0.00 | 0.00 | 0.00 | 55 | 1015.9 |
| 20260503180042 | 59 | 223 | 7.8 | 19.1 | 0.00 | 0.00 | 0.00 | 55 | 1015.9 |
| 20260503175527 | 59 | 208 | 10.4 | 19.1 | 0.00 | 0.00 | 0.00 | 55 | 1015.9 |
| 20260503175028 | 59 | 239 | 9.6 | 16.5 | 0.00 | 0.00 | 0.00 | 51 | 1016.0 |
| 20260503174538 | 59 | 247 | 7.8 | 18.2 | 0.00 | 0.00 | 0.00 | 53 | 1016.2 |
| 20260503174028 | 58 | 201 | 7.8 | 18.2 | 0.00 | 0.00 | 0.00 | 52 | 1016.1 |
| 20260503173528 | 59 | 223 | 7.0 | 16.5 | 0.00 | 0.00 | 0.00 | 54 | 1016.1 |
| 20260503173047 | 58 | 253 | 7.0 | 16.5 | 0.00 | 0.00 | 0.00 | 55 | 1016.3 |
| 20260503172531 | 58 | 175 | 9.6 | 16.5 | 0.00 | 0.00 | 0.00 | 59 | 1016.4 |
| 20260503172029 | 58 | 221 | 9.6 | 16.5 | 0.00 | 0.00 | 0.00 | 54 | 1016.4 |
| 20260503171542 | 58 | 263 | 4.3 | 16.5 | 0.00 | 0.00 | 0.00 | 58 | 1016.5 |
| 20260503171028 | 58 | 233 | 7.0 | 16.5 | 0.00 | 0.00 | 0.00 | 54 | 1016.6 |
| 20260503170529 | 58 | 223 | 5.2 | 15.6 | 0.00 | 0.00 | 0.00 | 55 | 1016.7 |
| 20260503150527 | 54 | 222 | 6.1 | 16.5 | 0.00 | 0.00 | 0.00 | 58 | 1017.4 |
| 20260503131033 | 46 | 207 | 6.1 | 10.4 | 0.00 | 0.00 | 0.00 | 64 | 1018.1 |
| 20260503130527 | 46 | 221 | 6.1 | 10.4 | 0.00 | 0.00 | 0.00 | 64 | 1018.0 |
| 20260503110533 | 35 | 216 | 3.5 | 6.1 | 0.00 | 0.00 | 0.00 | 81 | 1017.9 |
| 20260503081546 | 35 | 224 | 1.7 | 4.3 | 0.00 | 0.00 | 0.00 | 84 | 1017.6 |
| 20260503081028 | 35 | 242 | 1.7 | 4.3 | 0.00 | 0.00 | 0.00 | 85 | 1017.6 |
| 20260503080528 | 35 | 186 | 0.9 | 4.3 | 0.00 | 0.00 | 0.00 | 85 | 1017.7 |
| 20260503072528 | 35 | 215 | 2.6 | 4.3 | 0.00 | 0.00 | 0.00 | 85 | 1017.6 |
| 20260503072028 | 35 | 214 | 2.6 | 4.3 | 0.00 | 0.00 | 0.00 | 85 | 1017.6 |
| 20260503071541 | 36 | 217 | 2.6 | 4.3 | 0.00 | 0.00 | 0.00 | 85 | 1017.6 |
| 20260503071028 | 36 | 212 | 2.6 | 4.3 | 0.00 | 0.00 | 0.00 | 85 | 1017.6 |
| 20260503070528 | 36 | 213 | 1.7 | 3.5 | 0.00 | 0.00 | 0.00 | 86 | 1017.6 |
| 20260503070109 | 36 | 213 | 1.7 | 3.5 | 0.00 | 0.00 | 0.00 | 86 | 1017.6 |
| 20260503055027 | 36 | 203 | 2.6 | 4.3 | 0.00 | 0.00 | 0.00 | 85 | 1017.9 |
| 20260503054543 | 37 | 199 | 1.7 | 3.5 | 0.00 | 0.00 | 0.00 | 85 | 1018.1 |
| 20260503054029 | 37 | 198 | 1.7 | 3.5 | 0.00 | 0.00 | 0.00 | 85 | 1018.0 |
| 20260503053528 | 37 | 198 | 1.7 | 3.5 | 0.00 | 0.00 | 0.00 | 85 | 1018.0 |
| 20260503053049 | 37 | 198 | 1.7 | 3.5 | 0.00 | 0.00 | 0.00 | 84 | 1018.1 |
| 20260503052529 | 37 | 198 | 1.7 | 3.5 | 0.00 | 0.00 | 0.00 | 84 | 1018.0 |
| 20260503052029 | 37 | 198 | 1.7 | 3.5 | 0.00 | 0.00 | 0.00 | 84 | 1018.1 |
| 20260503051553 | 37 | 198 | 1.7 | 3.5 | 0.00 | 0.00 | 0.00 | 84 | 1018.0 |
| 20260503051027 | 38 | 198 | 1.7 | 3.5 | 0.00 | 0.00 | 0.00 | 84 | 1018.1 |
| 20260503050528 | 38 | 198 | 1.7 | 3.5 | 0.00 | 0.00 | 0.00 | 83 | 1018.1 |
| 20260503050045 | 38 | 198 | 1.7 | 3.5 | 0.00 | 0.00 | 0.00 | 83 | 1018.1 |
| 20260503045528 | 38 | 198 | 1.7 | 3.5 | 0.00 | 0.00 | 0.00 | 83 | 1018.1 |
| 20260503045031 | 38 | 197 | 2.6 | 4.3 | 0.00 | 0.00 | 0.00 | 83 | 1018.1 |
| 20260503044543 | 38 | 196 | 1.7 | 4.3 | 0.00 | 0.00 | 0.00 | 82 | 1018.1 |
| 20260503044028 | 39 | 196 | 2.6 | 4.3 | 0.00 | 0.00 | 0.00 | 82 | 1018.1 |
| 20260503043528 | 39 | 205 | 2.6 | 4.3 | 0.00 | 0.00 | 0.00 | 81 | 1018.1 |
| 20260503043044 | 40 | 202 | 2.6 | 5.2 | 0.00 | 0.00 | 0.00 | 81 | 1018.1 |
| 20260503042528 | 40 | 203 | 2.6 | 5.2 | 0.00 | 0.00 | 0.00 | 81 | 1018.1 |
| 20260503042028 | 40 | 200 | 3.5 | 5.2 | 0.00 | 0.00 | 0.00 | 80 | 1018.1 |
| 20260503041543 | 40 | 200 | 2.6 | 5.2 | 0.00 | 0.00 | 0.00 | 81 | 1018.2 |
| 20260503041031 | 40 | 211 | 2.6 | 5.2 | 0.00 | 0.00 | 0.00 | 81 | 1018.1 |
| 20260503040527 | 40 | 210 | 2.6 | 5.2 | 0.00 | 0.00 | 0.00 | 81 | 1018.1 |
| 20260503040049 | 40 | 205 | 1.7 | 4.3 | 0.00 | 0.00 | 0.00 | 82 | 1018.3 |
| 20260503035528 | 40 | 207 | 2.6 | 4.3 | 0.00 | 0.00 | 0.00 | 82 | 1018.3 |
| 20260503035028 | 40 | 196 | 0.9 | 3.5 | 0.00 | 0.00 | 0.00 | 82 | 1018.2 |
| 20260503034542 | 40 | 196 | 0.9 | 4.3 | 0.00 | 0.00 | 0.00 | 81 | 1018.3 |
| 20260503034028 | 40 | 196 | 1.7 | 4.3 | 0.00 | 0.00 | 0.00 | 81 | 1018.3 |
| 20260503033527 | 40 | 196 | 2.6 | 4.3 | 0.00 | 0.00 | 0.00 | 81 | 1018.3 |
| 20260503033048 | 40 | 194 | 1.7 | 4.3 | 0.00 | 0.00 | 0.00 | 81 | 1018.3 |
| 20260503032529 | 40 | 195 | 2.6 | 4.3 | 0.00 | 0.00 | 0.00 | 81 | 1018.3 |
| 20260503032028 | 40 | 193 | 1.7 | 3.5 | 0.00 | 0.00 | 0.00 | 81 | 1018.3 |
| 20260503031541 | 40 | 193 | 1.7 | 4.3 | 0.00 | 0.00 | 0.00 | 81 | 1018.4 |
| 20260503031029 | 40 | 193 | 1.7 | 5.2 | 0.00 | 0.00 | 0.00 | 81 | 1018.4 |
| 20260503030529 | 40 | 192 | 2.6 | 5.2 | 0.00 | 0.00 | 0.00 | 81 | 1018.4 |
| 20260503030051 | 40 | 190 | 2.6 | 3.5 | 0.00 | 0.00 | 0.00 | 80 | 1018.4 |
| 20260503025528 | 40 | 194 | 1.7 | 3.5 | 0.00 | 0.00 | 0.00 | 80 | 1018.4 |
| 20260503025029 | 40 | 194 | 1.7 | 4.3 | 0.00 | 0.00 | 0.00 | 80 | 1018.4 |
| 20260503024544 | 40 | 194 | 1.7 | 4.3 | 0.00 | 0.00 | 0.00 | 81 | 1018.5 |
| 20260503024028 | 40 | 195 | 1.7 | 4.3 | 0.00 | 0.00 | 0.00 | 81 | 1018.6 |
| 20260503023527 | 40 | 194 | 1.7 | 3.5 | 0.00 | 0.00 | 0.00 | 80 | 1018.6 |
| 20260503023044 | 40 | 194 | 1.7 | 4.3 | 0.00 | 0.00 | 0.00 | 80 | 1018.7 |
| 20260503022527 | 41 | 194 | 2.6 | 4.3 | 0.00 | 0.00 | 0.00 | 80 | 1018.7 |
| 20260503022036 | 40 | 196 | 2.6 | 4.3 | 0.00 | 0.00 | 0.00 | 80 | 1018.6 |
| 20260503021540 | 40 | 196 | 2.6 | 4.3 | 0.00 | 0.00 | 0.00 | 80 | 1018.6 |
| 20260503021030 | 40 | 194 | 2.6 | 4.3 | 0.00 | 0.00 | 0.00 | 80 | 1018.4 |
| 20260503020527 | 41 | 195 | 2.6 | 5.2 | 0.00 | 0.00 | 0.00 | 80 | 1018.5 |
| 20260503020041 | 40 | 196 | 2.6 | 5.2 | 0.00 | 0.00 | 0.00 | 79 | 1018.5 |
| 20260503015528 | 40 | 200 | 2.6 | 4.3 | 0.00 | 0.00 | 0.00 | 80 | 1018.6 |
| 20260503015027 | 40 | 188 | 1.7 | 4.3 | 0.00 | 0.00 | 0.00 | 80 | 1018.5 |
| 20260503014546 | 40 | 193 | 1.7 | 5.2 | 0.00 | 0.00 | 0.00 | 80 | 1018.5 |
| 20260503014026 | 40 | 191 | 1.7 | 5.2 | 0.00 | 0.00 | 0.00 | 80 | 1018.4 |
| 20260503013529 | 41 | 195 | 2.6 | 4.3 | 0.00 | 0.00 | 0.00 | 79 | 1018.5 |
| 20260503013053 | 41 | 185 | 2.6 | 4.3 | 0.00 | 0.00 | 0.00 | 80 | 1018.5 |
| 20260503012528 | 41 | 195 | 1.7 | 3.5 | 0.00 | 0.00 | 0.00 | 80 | 1018.5 |
| 20260503012027 | 41 | 195 | 1.7 | 4.3 | 0.00 | 0.00 | 0.00 | 80 | 1018.5 |
| 20260503011547 | 41 | 195 | 1.7 | 4.3 | 0.00 | 0.00 | 0.00 | 79 | 1018.5 |
| 20260503011030 | 41 | 195 | 2.6 | 4.3 | 0.00 | 0.00 | 0.00 | 79 | 1018.5 |
| 20260503010529 | 41 | 203 | 1.7 | 3.5 | 0.00 | 0.00 | 0.00 | 79 | 1018.5 |
| 20260503010107 | 41 | 204 | 1.7 | 3.5 | 0.00 | 0.00 | 0.00 | 79 | 1018.5 |
| 20260503005528 | 41 | 205 | 1.7 | 3.5 | 0.00 | 0.00 | 0.00 | 79 | 1018.5 |
| 20260503005030 | 41 | 205 | 1.7 | 3.5 | 0.00 | 0.00 | 0.00 | 79 | 1018.5 |
| 20260503004541 | 41 | 205 | 1.7 | 3.5 | 0.00 | 0.00 | 0.00 | 78 | 1018.4 |
| 20260503004027 | 41 | 205 | 1.7 | 3.5 | 0.00 | 0.00 | 0.00 | 78 | 1018.4 |
| 20260503003527 | 41 | 205 | 0.9 | 3.5 | 0.00 | 0.00 | 0.00 | 77 | 1018.4 |
| 20260503003105 | 42 | 205 | 0.9 | 3.5 | 0.00 | 0.00 | 0.00 | 76 | 1018.4 |
| 20260503002528 | 42 | 205 | 1.7 | 4.3 | 0.00 | 0.00 | 0.00 | 74 | 1018.4 |
| 20260503002028 | 42 | 206 | 1.7 | 4.3 | 0.00 | 0.00 | 0.00 | 74 | 1018.3 |
| 20260503001540 | 42 | 207 | 2.6 | 4.3 | 0.00 | 0.00 | 0.00 | 73 | 1018.4 |
| 20260503001028 | 42 | 237 | 0.0 | 2.6 | 0.00 | 0.00 | 0.00 | 72 | 1018.4 |
| 20260503000528 | 42 | 0 | 0.0 | 1.7 | 0.00 | 0.00 | 0.00 | 70 | 1018.4 |
| 20260503000041 | 42 | 0 | 0.0 | 1.7 | 0.00 | 0.00 | 0.00 | 71 | 1018.4 |
| 20260502235527 | 42 | 0 | 0.0 | 1.7 | 0.00 | 0.00 | 0.00 | 71 | 1018.3 |
| 20260502235029 | 43 | 0 | 0.0 | 1.7 | 0.00 | 0.00 | 0.00 | 71 | 1018.3 |
| 20260502234541 | 43 | 0 | 0.0 | 2.6 | 0.00 | 0.00 | 0.00 | 71 | 1018.2 |
| 20260502234027 | 43 | 0 | 0.0 | 2.6 | 0.00 | 0.00 | 0.00 | 70 | 1018.2 |
| 20260502233528 | 43 | 237 | 0.9 | 3.5 | 0.00 | 0.00 | 0.00 | 68 | 1018.2 |
| 20260502233040 | 43 | 318 | 0.9 | 3.5 | 0.00 | 0.00 | 0.00 | 69 | 1018.2 |
| 20260502232529 | 43 | 315 | 1.7 | 4.3 | 0.00 | 0.00 | 0.00 | 67 | 1018.4 |
| 20260502232027 | 43 | 299 | 1.7 | 4.3 | 0.00 | 0.00 | 0.00 | 67 | 1018.3 |
| 20260502231547 | 43 | 301 | 0.9 | 3.5 | 0.00 | 0.00 | 0.00 | 69 | 1018.2 |
| 20260502231029 | 43 | 284 | 0.0 | 3.5 | 0.00 | 0.00 | 0.00 | 69 | 1018.3 |
| 20260502230529 | 43 | 286 | 1.7 | 3.5 | 0.00 | 0.00 | 0.00 | 67 | 1018.3 |
| 20260502230045 | 43 | 286 | 1.7 | 3.5 | 0.00 | 0.00 | 0.00 | 69 | 1018.3 |
| 20260502225530 | 43 | 286 | 1.7 | 5.2 | 0.00 | 0.00 | 0.00 | 68 | 1018.3 |
| 20260502225028 | 43 | 0 | 0.9 | 7.0 | 0.00 | 0.00 | 0.00 | 68 | 1018.3 |